Location: Clanezzo
(45.7500°N, 9.6000°E)
Time: 02:53:06
(UTC+00:00)

ESTCUBE 1 - Pass Details

Date: 08 July 2022
Orbit: 646 x 657 km, 97.9° (Epoch: 13 August)

Event Time Altitude Azimuth Distance (km) Brightness Sun altitude
Exits shadow 19:52:29 - 104° (ESE) 2,517 ? -6.3°
Reaches altitude 10° 19:54:26 10° 85° (E) 2,054 ? -6.6°
Maximum altitude 19:56:24 13° 59° (ENE) 1,871 ? -6.8°
Drops below altitude 10° 19:58:23 10° 32° (NNE) 2,063 ? -7.1°
Sets 20:01:46 0° 5° (N) 2,982 ? -7.5°
